Regional Weather Roundup
Issued by NWS

Home | Current Version | Previous Version | Graphics & Text | Print | Product List | Glossary On
Versions: 1 2 3 4 5 6 7 8 9 10 11 12 13 14 15 16 17 18 19 20 21 22 23 24 25 26 27 28 29 30 31 32 33 34 35 36 37 38 39 40 41 42 43 44 45 46 47 48 49 50
000
ASUS43 KOAX 210210
RWRNE

WEATHER ROUNDUP FOR NEBRASKA
NATIONAL WEATHER SERVICE OMAHA NE
900 PM CDT FRI OCT 20 2017

NOTES: SATELLITE DATA IS BEING USED TO AUGMENT CLOUD COVER ABOVE
       12000 FEET.
       "FAIR" INDICATES FEW OR NO CLOUDS BELOW 12,000 FEET WITH NO
       SIGNIFICANT WEATHER AND/OR OBSTRUCTIONS TO VISIBILITY.


NEZ001>004-019>022-054>056-210300-
NEBRASKA PANHANDLE

CITY           SKY/WX    TMP DP  RH WIND       PRES   REMARKS
SCOTTSBLUFF    CLOUDY    57  40  52 SE8       29.44S
ALLIANCE       CLEAR     57  45  64 S13       29.45F
CHADRON        CLEAR     68  43  40 S18       29.39R
GORDON         FAIR      62  48  58 S8        29.44S
KIMBALL        CLEAR     57  35  43 S8        29.51F
SIDNEY         CLEAR     53  38  56 S7        29.49F
$$

NEZ057>060-069>072-079>082-210300-
SOUTHWEST NEBRASKA

CITY           SKY/WX    TMP DP  RH WIND       PRES   REMARKS
NORTH PLATTE   CLEAR     69  52  54 SE15      29.50S
IMPERIAL       CLEAR     65  50  58 SE12      29.48F
LEXINGTON      PTCLDY    70  55  57 S26G33    29.55S
MCCOOK         CLEAR     70  55  59 S23G36    29.51F
OGALLALA       CLOUDY    62  44  51 E5        29.48S
$$

NEZ005>010-023>029-035>040-094-210300-
NORTH CENTRAL NEBRASKA

CITY           SKY/WX    TMP DP  RH WIND       PRES   REMARKS
VALENTINE      CLEAR     61  49  64 S6        29.45F
AINSWORTH      CLEAR     67  54  63 S15       29.48F
BROKEN BOW     CLEAR     69  55  60 S20G26    29.54S
O`NEILL        CLEAR     69  58  67 S16G26    29.54R
ORD            PTCLDY    69  57  65 S21G35    29.54S
THEDFORD       CLEAR     68  52  56 S13       29.49F
$$

NEZ041-046>049-061>064-073>077-083>087-210300-
SOUTH CENTRAL NEBRASKA

CITY           SKY/WX    TMP DP  RH WIND       PRES   REMARKS
GRAND ISLAND   MOCLDY    69  59  70 S21G31    29.61R
AURORA         CLOUDY    69  56  63 S21G32    29.63R
HASTINGS       CLOUDY    70  56  61 S16G32    29.63R
HEBRON         CLOUDY    72  57  58 S22G30    29.68F
HOLDREGE       CLEAR     69  57  67 S20G26    29.58F
KEARNEY        PTCLDY    69  57  65 S23G30    29.58S
YORK           PTCLDY    70  57  64 S24G32    29.64F
$$

NEZ011>018-030>034-042>045-210300-
NORTHEAST NEBRASKA

CITY           SKY/WX    TMP DP  RH WIND       PRES   REMARKS
NORFOLK        PTCLDY    70  57  63 S24G35    29.57F
ALBION         MOCLDY    71  58  64 S23G35    29.60R
BLAIR          CLEAR     70  58  66 S26G33    29.71R
COLUMBUS       PTCLDY    71  57  61 S18       29.64S
FREMONT        CLEAR     70  56  62 SE21G30   29.69R
TEKAMAH        CLOUDY    71  57  61 S16G28    29.67S
WAYNE          CLEAR     69  59  70 S18       29.61S
$$

NEZ050>053-065>068-078-088>093-210300-
SOUTHEAST NEBRASKA

CITY           SKY/WX    TMP DP  RH WIND       PRES   REMARKS
LINCOLN        MOCLDY    70  57  63 S26G35    29.69S
OMAHA EPPLEY   PTCLDY    71  57  61 S25G33    29.72R
BEATRICE       CLOUDY    69  58  67 S15G28    29.73R
FALLS CITY     CLEAR     67  57  70 S16G25    29.78S
NEBRASKA CITY  CLEAR     68  59  73 S18G28    29.76R
PLATTSMOUTH    PTCLDY    69  58  68 SE15G28   29.74R
$$

NEZ044-045-051>053-067-210300-
OMAHA AREA

CITY           SKY/WX    TMP DP  RH WIND       PRES   REMARKS
OMAHA EPPLEY   PTCLDY    71  57  61 S25G33    29.72R
BLAIR          CLEAR     70  58  66 S26G33    29.71R
FREMONT        CLEAR     70  56  62 SE21G30   29.69R
MILLARD        MOCLDY    72  59  64 S20G26    29.72R
OFFUTT AFB     MOCLDY    69  57  65 SE21G30   29.73R
PLATTSMOUTH    PTCLDY    69  58  68 SE15G28   29.74R
WAHOO          MOCLDY    70  57  62 S21G28    29.69S
$$




USA.gov is the U.S. government's official web portal to all federal, state and local government web resources and services.